QPF
0.02 0.02 0.02 0.03 0.03 0.03 0.03 0.04 0.03 0.01 0.00 0.01 0.01 0.01 0.00 0.00 0.00 0.00 0.00 0.00 0.00 0.00 0.00 0.00 0.00 0.00 0.00 0.00 0.00 0.00 0.00 0.00 0.00 0.00 0.00 0.00 0.00 0.00 0.00 0.00 0.00 0.00 0.00 0.00
0.01 0.01 0.01 0.02 0.02 0.02 0.02 0.03 0.03 0.01 0.01 0.01 0.01 0.01 0.01 0.00 0.00 0.00 0.00 0.00 0.00 0.00 0.00 0.00 0.00 0.00 0.00 0.00 0.00 0.00 0.00 0.00 0.00 0.00 0.00 0.00 0.00 0.00 0.00 0.00 0.00 0.00 0.00 0.00
0.01 0.01 0.02 0.03 0.03 0.03 0.04 0.04 0.04 0.03 0.02 0.02 0.02 0.01 0.01 0.01 0.00 0.00 0.00 0.00 0.00 0.00 0.00 0.00 0.00 0.00 0.00 0.00 0.00 0.00 0.00 0.00 0.00 0.00 0.00 0.00 0.00 0.00 0.00 0.00 0.00 0.00 0.00 0.00
0.01 0.01 0.03 0.03 0.03 0.02 0.03 0.04 0.03 0.03 0.03 0.02 0.03 0.02 0.02 0.01 0.01 0.01 0.00 0.00 0.00 0.01 0.01 0.00 0.00 0.00 0.00 0.00 0.00 0.00 0.00 0.00 0.00 0.00 0.00 0.00 0.00 0.00 0.00 0.00 0.00 0.00 0.00 0.00
0.02 0.02 0.02 0.03 0.02 0.02 0.02 0.03 0.03 0.03 0.03 0.02 0.02 0.02 0.01 0.01 0.01 0.01 0.00 0.00 0.00 0.01 0.01 0.01 0.01 0.01 0.00 0.00 0.00 0.00 0.00 0.00 0.00 0.00 0.00 0.00 0.00 0.00 0.00 0.00 0.00 0.00 0.00 0.00
0.02 0.02 0.02 0.03 0.02 0.01 0.01 0.03 0.02 0.02 0.02 0.02 0.01 0.01 0.01 0.01 0.00 0.00 0.01 0.01 0.00 0.01 0.01 0.01 0.01 0.01 0.01 0.01 0.00 0.00 0.00 0.00 0.00 0.00 0.00 0.00 0.00 0.00 0.00 0.00 0.00 0.00 0.00 0.00
0.02 0.02 0.02 0.02 0.01 0.01 0.02 0.02 0.02 0.02 0.01 0.02 0.02 0.02 0.01 0.00 0.00 0.00 0.00 0.01 0.01 0.00 0.00 0.01 0.01 0.01 0.01 0.02 0.01 0.01 0.00 0.00 0.00 0.00 0.00 0.00 0.00 0.00 0.00 0.00 0.00 0.00 0.00 0.00
0.02 0.02 0.01 0.01 0.01 0.02 0.02 0.01 0.01 0.01 0.01 0.01 0.01 0.01 0.01 0.01 0.00 0.00 0.00 0.00 0.00 0.00 0.00 0.00 0.01 0.01 0.01 0.01 0.01 0.01 0.01 0.01 0.00 0.00 0.00 0.00 0.00 0.00 0.00 0.00 0.00 0.00 0.00 0.00
0.01 0.02 0.02 0.02 0.02 0.02 0.02 0.01 0.01 0.01 0.01 0.02 0.02 0.01 0.01 0.01 0.01 0.00 0.00 0.00 0.00 0.01 0.01 0.00 0.00 0.00 0.00 0.00 0.01 0.01 0.01 0.01 0.01 0.01 0.01 0.00 0.00 0.00 0.00 0.00 0.00 0.00 0.00 0.00
0.01 0.01 0.02 0.02 0.01 0.01 0.02 0.02 0.02 0.02 0.02 0.03 0.02 0.02 0.02 0.02 0.01 0.01 0.01 0.01 0.01 0.00 0.00 0.00 0.01 0.01 0.01 0.00 0.00 0.00 0.00 0.00 0.00 0.00 0.00 0.00 0.00 0.00 0.00 0.00 0.00 0.00 0.00 0.00
0.02 0.02 0.02 0.01 0.01 0.02 0.01 0.02 0.02 0.02 0.02 0.03 0.03 0.02 0.02 0.02 0.02 0.02 0.02 0.01 0.01 0.01 0.00 0.00 0.01 0.01 0.01 0.01 0.01 0.01 0.00 0.00 0.00 0.00 0.00 0.00 0.00 0.00 0.00 0.00 0.00 0.00 0.00 0.00
0.01 0.02 0.02 0.02 0.02 0.02 0.02 0.02 0.02 0.02 0.02 0.02 0.03 0.03 0.03 0.03 0.03 0.03 0.03 0.02 0.01 0.01 0.01 0.01 0.01 0.01 0.01 0.01 0.01 0.01 0.01 0.00 0.00 0.00 0.00 0.00 0.00 0.00 0.00 0.00 0.00 0.00 0.00 0.00
0.02 0.02 0.03 0.03 0.03 0.03 0.03 0.03 0.02 0.02 0.02 0.02 0.02 0.03 0.03 0.03 0.03 0.04 0.04 0.03 0.03 0.02 0.01 0.01 0.01 0.01 0.01 0.01 0.01 0.01 0.01 0.01 0.01 0.01 0.01 0.01 0.01 0.01 0.01 0.00 0.00 0.00 0.00 0.00
0.02 0.03 0.03 0.03 0.03 0.03 0.03 0.02 0.02 0.02 0.02 0.02 0.02 0.03 0.03 0.03 0.03 0.03 0.04 0.04 0.03 0.02 0.02 0.01 0.01 0.01 0.00 0.00 0.00 0.00 0.00 0.00 0.01 0.01 0.01 0.01 0.01 0.01 0.01 0.01 0.01 0.00 0.00 0.00
0.02 0.02 0.03 0.03 0.03 0.02 0.02 0.02 0.02 0.02 0.02 0.02 0.02 0.03 0.03 0.03 0.03 0.03 0.03 0.03 0.03 0.02 0.02 0.01 0.01 0.01 0.00 0.00 0.00 0.00 0.00 0.00 0.00 0.00 0.01 0.01 0.01 0.02 0.02 0.01 0.01 0.01 0.01 0.01
0.02 0.02 0.02 0.02 0.02 0.02 0.02 0.02 0.02 0.03 0.03 0.03 0.03 0.03 0.03 0.03 0.03 0.03 0.03 0.02 0.02 0.02 0.02 0.02 0.02 0.01 0.01 0.00 0.00 0.00 0.00 0.00 0.00 0.00 0.00 0.00 0.01 0.01 0.01 0.01 0.01 0.01 0.01 0.01
0.02 0.01 0.02 0.02 0.02 0.02 0.02 0.02 0.02 0.03 0.03 0.03 0.03 0.03 0.03 0.02 0.02 0.02 0.02 0.02 0.02 0.02 0.02 0.02 0.02 0.01 0.01 0.00 0.00 0.00 0.00 0.00 0.00 0.00 0.00 0.01 0.01 0.01 0.01 0.01 0.01 0.01 0.01 0.01
0.02 0.02 0.02 0.02 0.03 0.02 0.02 0.02 0.02 0.02 0.03 0.03 0.03 0.02 0.02 0.02 0.02 0.02 0.02 0.02 0.02 0.02 0.02 0.02 0.01 0.01 0.01 0.00 0.00 0.00 0.00 0.00 0.00 0.00 0.00 0.00 0.01 0.01 0.01 0.01 0.01 0.01 0.01 0.01
0.02 0.02 0.02 0.03 0.03 0.03 0.02 0.02 0.02 0.01 0.01 0.01 0.01 0.01 0.02 0.02 0.01 0.01 0.02 0.02 0.02 0.02 0.02 0.02 0.01 0.01 0.01 0.01 0.01 0.01 0.00 0.00 0.00 0.00 0.00 0.01 0.01 0.01 0.01 0.01 0.01 0.01 0.01 0.01
0.02 0.02 0.02 0.02 0.02 0.02 0.02 0.02 0.02 0.01 0.01 0.01 0.01 0.01 0.01 0.01 0.01 0.01 0.01 0.01 0.02 0.02 0.02 0.01 0.01 0.01 0.01 0.01 0.01 0.01 0.01 0.00 0.00 0.00 0.00 0.00 0.00 0.01 0.01 0.01 0.01 0.01 0.01 0.01
0.01 0.01 0.01 0.02 0.02 0.02 0.02 0.02 0.02 0.01 0.01 0.01 0.01 0.01 0.01 0.01 0.01 0.01 0.01 0.01 0.01 0.01 0.01 0.01 0.01 0.01 0.01 0.01 0.01 0.01 0.01 0.01 0.00 0.00 0.00 0.01 0.00 0.01 0.01 0.01 0.01 0.01 0.01 0.01
0.01 0.01 0.01 0.01 0.02 0.02 0.02 0.02 0.01 0.01 0.01 0.02 0.01 0.01 0.01 0.01 0.01 0.01 0.01 0.01 0.01 0.01 0.01 0.01 0.01 0.01 0.01 0.01 0.01 0.01 0.01 0.01 0.01 0.01 0.01 0.01 0.01 0.01 0.01 0.01 0.01 0.01 0.01 0.01
0.01 0.01 0.01 0.01 0.02 0.02 0.02 0.02 0.02 0.02 0.02 0.02 0.01 0.01 0.01 0.01 0.01 0.01 0.01 0.01 0.01 0.01 0.01 0.01 0.01 0.01 0.01 0.01 0.01 0.01 0.01 0.01 0.01 0.01 0.01 0.01 0.01 0.01 0.01 0.01 0.01 0.01 0.01 0.01
0.01 0.01 0.01 0.01 0.01 0.02 0.02 0.02 0.02 0.02 0.02 0.02 0.01 0.01 0.01 0.01 0.01 0.01 0.01 0.01 0.01 0.01 0.01 0.01 0.01 0.01 0.01 0.01 0.01 0.01 0.01 0.01 0.01 0.01 0.01 0.01 0.01 0.01 0.01 0.01 0.01 0.01 0.01 0.02
0.02 0.01 0.01 0.02 0.02 0.02 0.02 0.02 0.02 0.02 0.01 0.01 0.01 0.00 0.00 0.00 0.01 0.01 0.01 0.01 0.01 0.01 0.01 0.01 0.01 0.01 0.01 0.01 0.01 0.01 0.01 0.01 0.01 0.01 0.01 0.01 0.01 0.01 0.01 0.01 0.02 0.02 0.02 0.01
0.01 0.02 0.02 0.02 0.02 0.02 0.02 0.02 0.01 0.01 0.01 0.01 0.01 0.00 0.00 0.00 0.00 0.00 0.00 0.00 0.01 0.01 0.00 0.01 0.01 0.01 0.01 0.01 0.01 0.01 0.01 0.01 0.01 0.01 0.01 0.01 0.01 0.01 0.01 0.01 0.01 0.01 0.01 0.01
0.01 0.02 0.02 0.01 0.02 0.01 0.01 0.01 0.01 0.01 0.01 0.00 0.00 0.00 0.00 0.00 0.00 0.00 0.00 0.00 0.00 0.00 0.01 0.01 0.01 0.01 0.01 0.01 0.01 0.01 0.00 0.01 0.01 0.01 0.01 0.01 0.01 0.01 0.01 0.01 0.01 0.01 0.01 0.01
MSLP
1013.84 1013.96 1013.97 1013.83 1013.52 1013.06 1012.49 1011.88 1011.31 1010.86 1010.60 1010.59 1010.84 1011.35 1012.08 1012.99 1014.01 1015.09 1016.19 1017.27 1018.32 1019.33 1020.31 1021.27 1022.20 1023.10 1023.95 1024.72 1025.39 1025.93 1026.32 1026.57 1026.68 1026.66 1026.55 1026.37 1026.16 1025.93 1025.69 1025.44 1025.17 1024.88 1024.55 1024.18
1013.70 1013.76 1013.70 1013.51 1013.14 1012.64 1012.04 1011.43 1010.87 1010.45 1010.22 1010.25 1010.53 1011.07 1011.82 1012.74 1013.76 1014.84 1015.95 1017.04 1018.11 1019.16 1020.20 1021.21 1022.21 1023.17 1024.07 1024.88 1025.57 1026.11 1026.49 1026.71 1026.78 1026.71 1026.56 1026.33 1026.08 1025.83 1025.57 1025.33 1025.08 1024.82 1024.54 1024.21
1013.28 1013.28 1013.19 1012.95 1012.56 1012.05 1011.45 1010.85 1010.31 1009.92 1009.72 1009.75 1010.05 1010.59 1011.34 1012.24 1013.27 1014.36 1015.48 1016.62 1017.75 1018.88 1019.99 1021.10 1022.18 1023.21 1024.17 1025.01 1025.71 1026.25 1026.61 1026.79 1026.81 1026.71 1026.51 1026.26 1025.98 1025.72 1025.47 1025.23 1025.01 1024.78 1024.52 1024.23
1012.54 1012.49 1012.36 1012.11 1011.73 1011.24 1010.69 1010.14 1009.65 1009.30 1009.13 1009.19 1009.49 1010.02 1010.76 1011.65 1012.68 1013.78 1014.94 1016.13 1017.34 1018.56 1019.77 1020.97 1022.14 1023.24 1024.24 1025.11 1025.81 1026.33 1026.66 1026.81 1026.79 1026.66 1026.43 1026.17 1025.89 1025.64 1025.40 1025.19 1024.99 1024.78 1024.54 1024.27
1011.55 1011.44 1011.28 1011.03 1010.69 1010.27 1009.81 1009.35 1008.96 1008.68 1008.58 1008.68 1009.00 1009.53 1010.26 1011.15 1012.17 1013.29 1014.49 1015.73 1017.02 1018.32 1019.62 1020.91 1022.14 1023.29 1024.32 1025.18 1025.87 1026.36 1026.66 1026.77 1026.73 1026.58 1026.36 1026.10 1025.85 1025.62 1025.41 1025.23 1025.05 1024.86 1024.63 1024.35
1010.46 1010.28 1010.09 1009.87 1009.59 1009.27 1008.92 1008.60 1008.33 1008.18 1008.17 1008.34 1008.70 1009.26 1009.99 1010.88 1011.91 1013.04 1014.27 1015.56 1016.90 1018.26 1019.62 1020.95 1022.22 1023.38 1024.41 1025.25 1025.91 1026.36 1026.62 1026.71 1026.66 1026.51 1026.31 1026.09 1025.87 1025.69 1025.52 1025.37 1025.21 1025.02 1024.79 1024.49
1009.49 1009.23 1009.01 1008.80 1008.59 1008.38 1008.17 1008.00 1007.89 1007.88 1008.00 1008.27 1008.70 1009.30 1010.05 1010.96 1011.99 1013.13 1014.37 1015.69 1017.05 1018.44 1019.82 1021.16 1022.42 1023.56 1024.55 1025.35 1025.96 1026.36 1026.59 1026.66 1026.60 1026.48 1026.31 1026.13 1025.97 1025.83 1025.70 1025.58 1025.44 1025.25 1025.01 1024.69
1008.83 1008.48 1008.23 1008.03 1007.88 1007.77 1007.69 1007.68 1007.73 1007.88 1008.13 1008.51 1009.02 1009.68 1010.47 1011.39 1012.43 1013.58 1014.82 1016.13 1017.48 1018.86 1020.22 1021.53 1022.75 1023.83 1024.76 1025.49 1026.04 1026.39 1026.58 1026.64 1026.59 1026.48 1026.36 1026.23 1026.12 1026.03 1025.94 1025.84 1025.71 1025.52 1025.25 1024.91
1008.63 1008.20 1007.90 1007.69 1007.58 1007.54 1007.58 1007.69 1007.88 1008.17 1008.55 1009.04 1009.64 1010.36 1011.19 1012.13 1013.18 1014.32 1015.54 1016.83 1018.15 1019.49 1020.80 1022.04 1023.19 1024.19 1025.03 1025.69 1026.17 1026.47 1026.62 1026.66 1026.62 1026.54 1026.45 1026.37 1026.30 1026.24 1026.19 1026.11 1025.97 1025.78 1025.50 1025.13
1008.92 1008.43 1008.08 1007.85 1007.74 1007.74 1007.84 1008.04 1008.33 1008.72 1009.21 1009.79 1010.47 1011.25 1012.12 1013.08 1014.13 1015.26 1016.45 1017.70 1018.98 1020.25 1021.48 1022.64 1023.69 1024.61 1025.36 1025.94 1026.34 1026.59 1026.71 1026.74 1026.70 1026.64 1026.58 1026.53 1026.49 1026.46 1026.41 1026.34 1026.20 1026.00 1025.70 1025.32
1009.67 1009.13 1008.72 1008.45 1008.32 1008.31 1008.43 1008.67 1009.02 1009.48 1010.03 1010.68 1011.42 1012.24 1013.14 1014.12 1015.17 1016.28 1017.45 1018.65 1019.86 1021.06 1022.21 1023.28 1024.23 1025.05 1025.71 1026.21 1026.55 1026.75 1026.84 1026.85 1026.82 1026.77 1026.72 1026.69 1026.66 1026.64 1026.59 1026.51 1026.37 1026.16 1025.86 1025.48
1010.72 1010.16 1009.71 1009.39 1009.20 1009.16 1009.26 1009.49 1009.85 1010.33 1010.92 1011.61 1012.39 1013.24 1014.17 1015.16 1016.21 1017.31 1018.44 1019.59 1020.74 1021.86 1022.92 1023.90 1024.76 1025.49 1026.07 1026.49 1026.77 1026.93 1027.00 1027.00 1026.96 1026.92 1026.87 1026.84 1026.81 1026.78 1026.73 1026.64 1026.48 1026.26 1025.97 1025.61
1011.89 1011.32 1010.84 1010.47 1010.23 1010.14 1010.19 1010.39 1010.74 1011.22 1011.82 1012.53 1013.33 1014.22 1015.16 1016.16 1017.21 1018.28 1019.38 1020.48 1021.57 1022.61 1023.59 1024.48 1025.25 1025.89 1026.40 1026.76 1027.00 1027.13 1027.17 1027.16 1027.12 1027.07 1027.02 1026.98 1026.95 1026.90 1026.84 1026.73 1026.57 1026.35 1026.07 1025.73
1013.01 1012.46 1011.96 1011.56 1011.27 1011.12 1011.13 1011.30 1011.63 1012.10 1012.71 1013.44 1014.26 1015.16 1016.12 1017.12 1018.16 1019.21 1020.27 1021.32 1022.34 1023.31 1024.20 1025.01 1025.70 1026.27 1026.71 1027.02 1027.22 1027.32 1027.35 1027.33 1027.29 1027.23 1027.18 1027.13 1027.08 1027.02 1026.94 1026.82 1026.66 1026.44 1026.17 1025.87
1013.97 1013.44 1012.95 1012.53 1012.21 1012.04 1012.03 1012.18 1012.51 1012.99 1013.61 1014.36 1015.20 1016.12 1017.09 1018.09 1019.11 1020.14 1021.15 1022.14 1023.08 1023.97 1024.78 1025.50 1026.11 1026.61 1026.99 1027.26 1027.43 1027.51 1027.53 1027.51 1027.46 1027.40 1027.35 1027.29 1027.23 1027.16 1027.07 1026.94 1026.77 1026.57 1026.32 1026.04
1014.73 1014.23 1013.76 1013.34 1013.04 1012.87 1012.87 1013.04 1013.39 1013.90 1014.56 1015.33 1016.20 1017.14 1018.11 1019.11 1020.10 1021.08 1022.04 1022.96 1023.82 1024.62 1025.34 1025.98 1026.51 1026.94 1027.27 1027.50 1027.64 1027.70 1027.71 1027.69 1027.64 1027.58 1027.53 1027.47 1027.40 1027.32 1027.23 1027.10 1026.94 1026.74 1026.51 1026.26
1015.32 1014.86 1014.41 1014.03 1013.76 1013.64 1013.69 1013.92 1014.32 1014.89 1015.59 1016.41 1017.31 1018.26 1019.23 1020.20 1021.15 1022.08 1022.96 1023.79 1024.57 1025.27 1025.90 1026.45 1026.91 1027.28 1027.55 1027.74 1027.85 1027.90 1027.90 1027.87 1027.83 1027.77 1027.72 1027.66 1027.59 1027.52 1027.42 1027.30 1027.14 1026.96 1026.75 1026.52
1015.82 1015.39 1014.98 1014.66 1014.45 1014.41 1014.54 1014.86 1015.34 1015.98 1016.75 1017.61 1018.53 1019.48 1020.43 1021.36 1022.26 1023.11 1023.91 1024.64 1025.32 1025.93 1026.47 1026.93 1027.31 1027.62 1027.84 1027.99 1028.08 1028.11 1028.10 1028.07 1028.02 1027.97 1027.91 1027.86 1027.79 1027.72 1027.63 1027.52 1027.38 1027.21 1027.01 1026.80
1016.33 1015.92 1015.57 1015.31 1015.20 1015.26 1015.50 1015.91 1016.49 1017.20 1018.02 1018.92 1019.85 1020.78 1021.69 1022.56 1023.38 1024.14 1024.84 1025.48 1026.06 1026.57 1027.02 1027.41 1027.72 1027.97 1028.15 1028.27 1028.32 1028.34 1028.32 1028.27 1028.22 1028.16 1028.11 1028.05 1027.99 1027.92 1027.84 1027.74 1027.61 1027.46 1027.28 1027.08
1016.91 1016.54 1016.25 1016.08 1016.07 1016.24 1016.58 1017.10 1017.76 1018.54 1019.40 1020.30 1021.21 1022.10 1022.95 1023.74 1024.47 1025.13 1025.73 1026.27 1026.75 1027.18 1027.56 1027.87 1028.13 1028.34 1028.48 1028.56 1028.59 1028.58 1028.55 1028.49 1028.42 1028.35 1028.29 1028.22 1028.16 1028.10 1028.03 1027.93 1027.82 1027.69 1027.52 1027.34
1017.63 1017.29 1017.07 1017.00 1017.09 1017.36 1017.81 1018.41 1019.13 1019.95 1020.82 1021.71 1022.58 1023.40 1024.16 1024.86 1025.48 1026.04 1026.54 1026.99 1027.39 1027.74 1028.05 1028.32 1028.54 1028.70 1028.81 1028.87 1028.88 1028.85 1028.79 1028.71 1028.62 1028.53 1028.45 1028.38 1028.31 1028.25 1028.18 1028.11 1028.01 1027.89 1027.75 1027.58
1018.48 1018.20 1018.06 1018.07 1018.26 1018.63 1019.15 1019.81 1020.58 1021.40 1022.25 1023.09 1023.89 1024.62 1025.28 1025.87 1026.39 1026.85 1027.26 1027.62 1027.95 1028.25 1028.52 1028.75 1028.93 1029.07 1029.16 1029.19 1029.17 1029.12 1029.03 1028.92 1028.80 1028.69 1028.59 1028.50 1028.44 1028.37 1028.32 1028.25 1028.17 1028.08 1027.95 1027.80
1019.44 1019.24 1019.18 1019.28 1019.56 1020.00 1020.58 1021.27 1022.04 1022.84 1023.64 1024.41 1025.11 1025.74 1026.30 1026.78 1027.20 1027.57 1027.89 1028.19 1028.47 1028.73 1028.96 1029.16 1029.32 1029.44 1029.50 1029.51 1029.47 1029.38 1029.25 1029.12 1028.97 1028.83 1028.71 1028.61 1028.54 1028.48 1028.44 1028.39 1028.33 1028.25 1028.15 1028.02
1020.47 1020.36 1020.38 1020.57 1020.92 1021.42 1022.03 1022.73 1023.48 1024.23 1024.96 1025.64 1026.24 1026.77 1027.22 1027.61 1027.93 1028.22 1028.48 1028.73 1028.96 1029.18 1029.39 1029.57 1029.71 1029.80 1029.83 1029.81 1029.74 1029.61 1029.46 1029.29 1029.11 1028.95 1028.81 1028.71 1028.63 1028.58 1028.55 1028.53 1028.49 1028.44 1028.36 1028.25
1021.55 1021.52 1021.63 1021.89 1022.30 1022.83 1023.46 1024.14 1024.84 1025.53 1026.19 1026.77 1027.28 1027.71 1028.07 1028.37 1028.63 1028.85 1029.06 1029.26 1029.46 1029.65 1029.82 1029.97 1030.08 1030.14 1030.14 1030.08 1029.97 1029.81 1029.62 1029.42 1029.22 1029.04 1028.89 1028.78 1028.71 1028.68 1028.67 1028.67 1028.66 1028.64 1028.58 1028.49
1022.62 1022.68 1022.87 1023.19 1023.63 1024.18 1024.80 1025.45 1026.10 1026.72 1027.30 1027.80 1028.23 1028.58 1028.87 1029.10 1029.30 1029.48 1029.65 1029.81 1029.97 1030.13 1030.27 1030.37 1030.44 1030.45 1030.41 1030.30 1030.15 1029.95 1029.72 1029.50 1029.28 1029.09 1028.94 1028.84 1028.79 1028.77 1028.79 1028.81 1028.83 1028.84 1028.80 1028.73
1023.66 1023.79 1024.04 1024.40 1024.87 1025.41 1026.00 1026.61 1027.21 1027.77 1028.28 1028.71 1029.07 1029.37 1029.61 1029.80 1029.96 1030.11 1030.24 1030.37 1030.50 1030.61 1030.70 1030.76 1030.77 1030.72 1030.62 1030.46 1030.26 1030.02 1029.77 1029.52 1029.29 1029.10 1028.96 1028.88 1028.84 1028.85 1028.89 1028.94 1028.99 1029.01 1028.99 1028.93
Thickness
5399 5404 5409 5413 5415 5421 5429 5442 5452 5462 5462 5464 5459 5460 5463 5467 5472 5478 5482 5487 5492 5499 5504 5509 5513 5516 5518 5520 5520 5520 5520 5519 5518 5517 5516 5515 5514 5513 5511 5509 5508 5506 5504 5502
5392 5400 5404 5405 5410 5415 5420 5426 5436 5441 5445 5446 5444 5447 5451 5456 5461 5466 5470 5474 5479 5485 5491 5497 5502 5504 5506 5508 5509 5509 5510 5509 5507 5506 5505 5505 5504 5502 5501 5499 5498 5496 5494 5492
5393 5393 5398 5403 5400 5403 5410 5415 5422 5431 5436 5431 5433 5435 5440 5445 5449 5454 5458 5462 5468 5473 5479 5484 5489 5493 5495 5496 5497 5498 5498 5497 5496 5496 5495 5494 5493 5492 5491 5489 5488 5486 5484 5482
5380 5386 5390 5393 5389 5392 5397 5401 5406 5413 5418 5421 5424 5426 5429 5433 5439 5443 5446 5451 5457 5462 5467 5472 5477 5481 5483 5485 5486 5487 5487 5486 5486 5485 5485 5484 5483 5482 5481 5480 5478 5476 5474 5472
5372 5382 5389 5386 5380 5379 5385 5395 5394 5399 5406 5409 5410 5418 5425 5424 5428 5432 5436 5441 5447 5452 5456 5461 5466 5470 5472 5473 5474 5475 5475 5475 5475 5475 5475 5474 5473 5472 5471 5470 5468 5466 5464 5462
5362 5372 5380 5377 5370 5372 5380 5394 5386 5386 5393 5397 5403 5419 5423 5415 5417 5421 5425 5430 5435 5441 5445 5451 5454 5458 5461 5462 5463 5463 5463 5463 5464 5464 5464 5464 5463 5461 5460 5459 5457 5455 5453 5452
5355 5363 5371 5361 5359 5369 5380 5384 5373 5377 5383 5388 5395 5404 5404 5403 5406 5410 5414 5418 5423 5429 5433 5437 5441 5445 5448 5450 5450 5450 5451 5451 5452 5453 5453 5452 5451 5450 5449 5448 5447 5445 5444 5442
5346 5355 5359 5349 5354 5359 5361 5361 5364 5369 5374 5378 5382 5385 5389 5392 5394 5399 5403 5407 5412 5417 5420 5424 5428 5433 5436 5437 5437 5438 5439 5440 5441 5441 5441 5441 5440 5439 5438 5437 5437 5435 5434 5432
5336 5344 5342 5339 5341 5343 5345 5351 5357 5361 5365 5368 5372 5376 5379 5381 5384 5388 5392 5396 5401 5405 5409 5412 5416 5420 5423 5424 5425 5426 5428 5428 5429 5429 5430 5429 5429 5429 5428 5427 5426 5425 5424 5422
5322 5333 5332 5332 5333 5336 5339 5342 5347 5351 5355 5359 5363 5367 5369 5372 5375 5378 5382 5386 5390 5395 5398 5401 5404 5407 5410 5411 5413 5416 5417 5417 5418 5418 5418 5418 5418 5417 5417 5416 5416 5414 5413 5411
5318 5324 5326 5330 5327 5329 5331 5334 5339 5342 5346 5350 5354 5357 5359 5362 5365 5368 5371 5375 5379 5383 5386 5389 5392 5395 5398 5400 5403 5405 5406 5406 5406 5407 5407 5407 5406 5405 5405 5405 5404 5403 5402 5401
5320 5316 5315 5319 5318 5320 5323 5326 5330 5334 5338 5341 5344 5347 5349 5352 5354 5358 5361 5364 5368 5372 5375 5378 5381 5384 5386 5389 5392 5394 5395 5395 5396 5396 5396 5396 5396 5395 5393 5393 5392 5392 5391 5390
5302 5304 5305 5307 5309 5312 5314 5317 5321 5325 5329 5332 5334 5337 5340 5341 5344 5347 5351 5354 5358 5361 5365 5367 5370 5373 5375 5377 5380 5383 5384 5384 5384 5385 5385 5385 5385 5385 5385 5383 5382 5381 5380 5379
5296 5297 5301 5303 5304 5304 5307 5309 5313 5316 5319 5322 5325 5327 5329 5332 5334 5338 5341 5344 5347 5351 5354 5357 5359 5362 5364 5367 5369 5371 5372 5372 5373 5374 5374 5374 5375 5374 5374 5374 5373 5372 5370 5369
5292 5293 5295 5296 5297 5298 5300 5303 5306 5308 5311 5313 5316 5318 5320 5323 5326 5329 5331 5334 5338 5341 5343 5346 5348 5350 5353 5356 5358 5360 5361 5362 5363 5363 5364 5364 5364 5364 5364 5363 5363 5362 5361 5360
5288 5288 5289 5290 5292 5293 5295 5297 5299 5301 5303 5305 5307 5309 5311 5314 5317 5319 5322 5325 5328 5331 5333 5335 5337 5339 5341 5344 5346 5348 5350 5351 5352 5354 5354 5354 5354 5354 5354 5353 5353 5352 5351 5350
5284 5287 5287 5288 5288 5288 5289 5291 5292 5293 5295 5297 5299 5301 5303 5305 5308 5310 5312 5315 5317 5320 5322 5324 5326 5328 5331 5333 5336 5338 5340 5341 5342 5343 5344 5344 5345 5345 5344 5343 5343 5342 5341 5340
5280 5281 5281 5282 5282 5283 5284 5284 5285 5286 5287 5288 5290 5293 5295 5297 5299 5301 5302 5305 5308 5310 5312 5314 5316 5319 5321 5323 5325 5327 5329 5330 5332 5333 5334 5334 5334 5334 5334 5333 5333 5333 5332 5331
5274 5275 5275 5276 5276 5277 5278 5278 5279 5280 5280 5282 5284 5285 5286 5288 5290 5292 5294 5297 5300 5302 5303 5305 5307 5310 5312 5313 5315 5318 5319 5321 5322 5323 5324 5324 5324 5324 5324 5324 5324 5323 5323 5323
5269 5269 5269 5270 5270 5271 5271 5272 5272 5273 5274 5275 5276 5278 5279 5280 5281 5284 5286 5289 5291 5293 5294 5296 5299 5301 5302 5304 5306 5308 5310 5311 5312 5313 5314 5314 5315 5314 5314 5314 5314 5314 5315 5315
5263 5263 5263 5264 5264 5264 5264 5265 5266 5267 5267 5268 5269 5270 5271 5272 5273 5276 5279 5282 5282 5284 5286 5289 5291 5292 5293 5295 5297 5299 5300 5301 5303 5304 5304 5305 5305 5305 5306 5306 5306 5307 5307 5308
5257 5257 5257 5257 5257 5258 5258 5258 5258 5259 5259 5260 5261 5262 5263 5265 5267 5269 5270 5272 5274 5276 5279 5281 5282 5284 5285 5287 5288 5290 5291 5292 5293 5294 5295 5296 5296 5297 5298 5299 5299 5300 5301 5302
5252 5251 5251 5251 5251 5251 5250 5250 5250 5251 5251 5252 5253 5254 5256 5258 5260 5263 5265 5266 5267 5270 5272 5273 5275 5277 5278 5279 5280 5281 5282 5283 5284 5286 5287 5287 5288 5289 5291 5292 5293 5294 5296 5297
5246 5245 5245 5244 5243 5244 5244 5244 5243 5244 5243 5244 5246 5247 5249 5252 5254 5255 5257 5259 5260 5263 5265 5266 5268 5270 5271 5272 5273 5274 5275 5276 5277 5278 5279 5280 5281 5283 5284 5286 5287 5289 5291 5292
5240 5239 5238 5237 5239 5240 5239 5238 5237 5237 5238 5239 5240 5241 5243 5245 5247 5249 5250 5252 5254 5256 5258 5259 5262 5263 5264 5265 5266 5267 5268 5269 5270 5272 5273 5274 5276 5277 5279 5280 5282 5284 5287 5289
5234 5235 5234 5233 5233 5234 5234 5234 5234 5235 5235 5236 5237 5237 5238 5239 5241 5242 5244 5246 5247 5250 5252 5253 5255 5257 5258 5259 5260 5261 5263 5264 5265 5266 5268 5269 5271 5272 5274 5276 5278 5281 5283 5286
5229 5228 5227 5228 5228 5228 5228 5229 5230 5230 5231 5232 5232 5233 5234 5235 5236 5238 5239 5241 5243 5245 5246 5248 5249 5251 5252 5254 5255 5257 5258 5259 5261 5262 5263 5265 5267 5268 5270 5272 5275 5277 5280 5282